Location: Nag� el Ma?a??a
(24.0667°N, 32.8833°E)
Time: 17:08:32
(UTC+00:00)

NOSS 3-4 (C) - Pass Details

Date: 25 September 2021
Orbit: 868 x 1344 km, 63.4° (Epoch: 05 October)

Event Time Altitude Azimuth Distance (km) Brightness Sun altitude
Exits shadow 03:00:29 - 227° (SW) 3,154 5.7 -9.4°
Reaches altitude 10° 03:02:17 10° 233° (SW) 2,506 5.2 -9.0°
Maximum altitude 03:07:36 39° 301° (WNW) 1,287 3.8 -7.8°
Drops below altitude 10° 03:13:05 10° 9° (N) 2,575 5.9 -6.6°
Sets 03:15:50 0° 17° (NNE) 3,565 6.7 -5.9°
